Tracking 23731 objects as of 26-Sep-2021
HD Live streaming from Space Station
objects crossing your sky now

STARLINK-1294

Track STARLINK-1294 now!
10-day predictions
STARLINK-1294 is classified as:


NORAD ID: 45551
Int'l Code: 2020-025W
Perigee: 553.2 km
Apogee: 555.5 km
Inclination: 53.1 °
Period: 95.6 minutes
Semi major axis: 6925 km
RCS: Unknown
Launch date: April 22, 2020
Source: United States (US)
Launch site: AIR FORCE EASTERN TEST RANGE (AFETR)
aabbcc
Your satellite tracking list
Your tracking list is empty




NASA's NSSDC Master Catalog

Two Line Element Set (TLE):
1 45551U 20025W   21269.07119543  .00000721  00000-0  67283-4 0  9999
2 45551  53.0538 184.3129 0001657  59.1227 300.9925 15.06394375 79747
Source of the keplerian elements: AFSPC